[[{"header":{"parameterUnit":"m.s-1","parameterCategory":1,"la1":30.2992,"la2":30.254,"lo1":-89.0895,"lo2":-89.0443,"dy":0.0025,"dx":0.0025,"nx":19,"ny":19,"refTime":"2026-05-19T03:00:00:Z","depth":0,"parameterNumber":2,"parameterNumberName":"U-component_of_WINDS"},"data":[0,0,0,-4.698,-4.6983,-4.7083,-4.7083,-4.7224,-4.7226,0,0,0,0,0,0,0,0,0,0,0,-4.6961,-4.6962,-4.698,-4.6983,-4.7082,-4.7083,-4.7224,-4.7226,0,0,0,0,0,0,0,0,0,0,0,-4.696,-4.6962,-4.6963,-4.6983,-4.7082,-4.7083,-4.7224,-4.7143,0,0,0,0,0,0,0,0,0,0,-4.7043,-4.7036,-4.6961,-4.6964,-4.6984,-4.7082,-4.7083,-4.7139,-4.7148,-4.7185,0,-4.7223,0,-4.7227,-4.7236,-4.7237,0,0,0,-4.6974,-4.7028,-4.7046,-4.6964,-4.6985,-4.7082,-4.7035,-4.7144,-4.7154,-4.7198,-4.7225,-4.723,-4.7229,-4.7237,-4.7238,-4.7487,-4.7488,0,0,-4.6969,-4.6984,-4.7039,-4.7054,-4.7042,-4.7032,-4.7038,-4.715,-4.718,-4.7226,-4.7233,-4.7232,-4.7238,-4.7239,-4.7485,-4.7487,0,0,0,-4.6959,-4.698,-4.6995,-4.7048,-4.7065,-4.7035,-4.7042,-4.7175,-4.7179,-4.7234,-4.7233,-4.7239,-4.7241,-4.7484,-4.7486,-4.7577,0,0,0,-4.6955,-4.6974,-4.6993,-4.7003,-4.7064,-4.7122,-4.7065,-4.7171,-4.7183,-4.7233,-4.7239,-4.7243,-4.7482,-4.7485,-4.7571,-4.7617,0,0,0,-4.6951,-4.6973,-4.6992,-4.7004,-4.7048,-4.712,-4.713,-4.7173,-4.7183,-4.7237,-4.7243,-4.7481,-4.7484,-4.7565,-4.7608,-4.7686,0,0,0,-4.695,-4.7071,-4.6994,-4.7128,-4.7047,-4.7177,-4.7129,-4.7224,-4.7281,-4.724,-4.7482,-4.7486,-4.7564,-4.7602,-4.7681,-4.7754,-4.7787,0,0,-4.711,-4.709,-4.7168,-4.7102,-4.725,-4.716,-4.732,-4.7357,-4.7348,-4.744,-4.7446,-4.7573,-4.7607,-4.7685,-4.7967,-4.7993,0,0,0,-4.7224,-4.728,-4.7316,-4.7372,-4.7406,-4.7437,-4.7449,-4.7463,-4.7541,-4.7399,-4.7623,-4.7643,-4.7688,-4.7722,-4.7744,-4.7781,-4.7503,-4.7502,-4.7502,-4.7471,-4.7454,-4.7582,-4.7578,-4.7633,-4.7645,-4.7687,-4.7707,-4.7673,-4.7726,-4.7753,-4.7926,-4.7967,-4.7984,-4.8023,-4.7792,-4.7792,-4.7793,-4.7793,-4.7703,-4.778,-4.7733,-4.784,-4.7822,-4.791,-4.7926,-4.79,-4.7978,-4.7904,-4.7943,-4.7863,-4.8013,-4.8046,-4.7799,-4.7798,-4.7797,-4.7797,-4.7796,-4.7862,-4.7896,-4.7912,-4.7992,-4.8056,-4.8046,-4.8125,-4.8105,-4.8086,-4.8125,-4.815,-4.8149,-4.8143,-4.8139,-4.8139,-4.814,-4.814,-4.8141,-4.8141,-4.802,-4.8035,-4.8105,-4.8152,-4.8185,-4.8227,-4.824,-4.8272,-4.8302,-4.8281,-4.8281,-4.8241,-4.8032,-4.7979,-4.815,-4.8149,-4.8148,-4.8147,-4.8146,-4.8259,-4.8202,-4.831,-4.8344,-4.8396,-4.846,-4.8434,-4.8501,-4.8524,-4.8563,-4.8516,-4.8365,-4.8342,-4.8324,-4.828,-4.852,-4.852,-4.852,-4.852,-4.8392,-4.838,-4.8485,-4.8541,-4.8593,-4.8581,-4.8701,-4.8713,-4.8716,-4.8729,-4.8691,-4.8632,-4.8615,-4.8602,-4.8578,-4.8537,-4.8836,-4.8836,-4.8837,-4.8538,-4.853,-4.8637,-4.8641,-4.8681,-4.8715,-4.8827,-4.8891,-4.8882,-4.8849,-4.8738,-4.8725,-4.8628,-4.8598,-4.8561,-4.8524,-4.8448,0,0]},{"header":{"parameterUnit":"m.s-1","parameterCategory":1,"la1":30.2992,"la2":30.254,"lo1":-89.0895,"lo2":-89.0443,"dy":0.0025,"dx":0.0025,"nx":19,"ny":19,"refTime":"2026-05-19T03:00:00:Z","depth":0,"parameterNumber":3,"parameterNumberName":"V-component_of_WINDS"},"data":[0,0,0,3.95,3.95,3.9497,3.9497,3.9496,3.9496,0,0,0,0,0,0,0,0,0,0,0,3.9502,3.9502,3.95,3.95,3.9497,3.9497,3.9496,3.9496,0,0,0,0,0,0,0,0,0,0,0,3.9502,3.9502,3.9502,3.95,3.9497,3.9497,3.9496,3.9497,0,0,0,0,0,0,0,0,0,0,3.9499,3.9503,3.9502,3.9502,3.95,3.9497,3.9497,3.9497,3.9497,3.9498,0,3.9501,0,3.9499,3.9496,3.9496,0,0,0,3.9498,3.9503,3.9501,3.9502,3.95,3.9497,3.9498,3.9497,3.9497,3.9498,3.9501,3.95,3.9499,3.9496,3.9496,3.9513,3.9513,0,0,3.9498,3.9502,3.9501,3.9501,3.9503,3.9498,3.9498,3.9497,3.9499,3.9501,3.95,3.9499,3.9496,3.9496,3.9513,3.9513,0,0,0,3.9499,3.9502,3.95,3.9501,3.9501,3.9498,3.9498,3.9499,3.9498,3.95,3.9499,3.9496,3.9496,3.9513,3.9513,3.9527,0,0,0,3.9499,3.9503,3.95,3.9503,3.9501,3.95,3.95,3.9498,3.9498,3.9499,3.9496,3.9496,3.9513,3.9513,3.9526,3.9532,0,0,0,3.9501,3.9503,3.9504,3.9503,3.9503,3.95,3.9499,3.9498,3.9497,3.9496,3.9496,3.9513,3.9513,3.9525,3.9531,3.9539,0,0,0,3.9504,3.9514,3.9504,3.9515,3.9503,3.9509,3.9499,3.9503,3.9504,3.9496,3.9513,3.9513,3.9525,3.953,3.9538,3.9547,3.9551,0,0,3.9519,3.9516,3.9522,3.9513,3.9523,3.9509,3.952,3.9515,3.951,3.9512,3.9513,3.9526,3.9531,3.9539,3.957,3.9573,0,0,0,3.9528,3.9533,3.9534,3.9536,3.9535,3.9534,3.9528,3.9526,3.9528,3.9513,3.9531,3.9533,3.9538,3.9542,3.9544,3.9548,3.9515,3.9515,3.9515,3.9555,3.955,3.956,3.9555,3.9557,3.9552,3.9553,3.955,3.9543,3.9547,3.9548,3.9568,3.9573,3.9575,3.9579,3.9552,3.9552,3.9552,3.9552,3.9576,3.9582,3.9575,3.9582,3.9576,3.9581,3.9577,3.9572,3.9576,3.9566,3.957,3.956,3.9578,3.9582,3.9553,3.9553,3.9552,3.9552,3.9552,3.9593,3.9596,3.9595,3.9599,3.9602,3.9597,3.9602,3.9596,3.9591,3.9594,3.9595,3.9595,3.9594,3.9595,3.9595,3.9595,3.9595,3.9595,3.9595,3.9611,3.9611,3.9616,3.9617,3.9619,3.962,3.9616,3.9617,3.9617,3.9612,3.9612,3.9605,3.9581,3.9575,3.9597,3.9596,3.9596,3.9596,3.9596,3.9636,3.963,3.9639,3.964,3.9642,3.9646,3.964,3.9643,3.9643,3.9646,3.9638,3.9621,3.9617,3.9615,3.961,3.9639,3.9639,3.9639,3.9639,3.9651,3.9649,3.9657,3.9661,3.9664,3.9659,3.967,3.9667,3.9663,3.9663,3.9658,3.9652,3.965,3.9647,3.9644,3.9639,3.9675,3.9675,3.9675,3.9666,3.9664,3.9674,3.9672,3.9673,3.9674,3.9684,3.9688,3.9682,3.9676,3.9663,3.9662,3.9651,3.9647,3.9641,3.9636,3.9628,0,0]}]]